Location: Vancouver
(49.2500°N, 123.1330°W)
Time: 12:55:33
(UTC-07:00)

BREEZE-M DEB (TANK) - Visible Passes

Search period start: 23 October 2014 00:00
Search period end: 02 November 2014 00:00
Orbit: 284 x 13635 km, 49.6° (Epoch: 23 October)

Date Brightness Start Highest point End Pass type
(mag) Time Alt. Az. Time Alt. Az. Time Alt. Az.
23 Oct 4.7 04:55:38 18° SSE 04:57:24 23° ESE 05:04:19 10° ENE visible
24 Oct 4.2 06:28:47 13° SW 06:32:45 70° SSE 06:49:11 10° ENE visible
26 Oct 4.0 05:19:24 31° S 05:20:56 41° SE 05:31:06 10° ENE visible
27 Oct 4.3 06:52:22 10° WSW 06:57:06 85° SSE 07:17:27 10° E visible
28 Oct 5.3 04:09:47 17° ESE 04:09:47 17° ESE 04:14:11 10° ENE visible
29 Oct 3.7 05:42:37 37° SSW 05:44:25 62° SSE 05:57:32 10° ENE visible
30 Oct 4.7 07:15:43 10° W 07:21:08 89° N 07:46:11 10° E visible
31 Oct 4.5 04:32:38 31° ESE 04:32:38 31° ESE 04:39:54 10° ENE visible
01 Nov 3.9 06:05:16 32° WSW 06:07:44 81° SSE 06:23:59 10° ENE visible
